This demonstration page uses our WeatherBlox Daily Observations layout. Learn more.

Left ArrowRight Arrow

Hourly Observations for October 7, 2018

Temp ( °F °C ) Dew Point ( °F °C ) Humidity (%) Winds ( mph kmh ) Pressure ( in mb ) Visibility ( mi km ) Precip ( " mm )
12:51 am 00:51 Clear 66 18.9 41 5 40 40 WNW 3 6 29.60 1002 10 16 0.00 0.00
1:51 am 01:51 Clear 60 15.6 39 3.9 46 46 VRB 6 9 29.60 1002 10 16 0.00 0.00
2:51 am 02:51 Clear 62 16.7 38 3.3 41 41 ENE 7 11 29.57 1001 10 16 0.00 0.00
3:51 am 03:51 Clear 65 18.3 41 5 42 42 NE 12 19 29.55 1001 10 16 0.00 0.00
4:51 am 04:51 Clear 65 18.3 44 6.7 47 47 ENE 8 13 29.54 1000 10 16 0.00 0.00
5:51 am 05:51 Clear 67 19.4 43 6.1 42 42 ESE 9 15 29.58 1002 10 16 0.00 0.00
6:51 am 06:51 Sunny 67 19.4 40 4.4 37 37 ENE 20 31 29.59 1002 10 16 0.00 0.00
7:51 am 07:51 Sunny 70 21.1 41 5 35 35 S 9 15 29.61 1003 10 16 0.00 0.00
8:51 am 08:51 Mostly Cloudy 71 21.7 47 8.3 42 42 S 21 33 29.61 1003 10 16 0.00 0.00
9:51 am 09:51 Cloudy with Light Rain 65 18.3 53 11.7 66 66 NW 13 20 29.60 1003 9 14 0.00 0.03
10:07 am 10:07 Cloudy with Rain 62 16.7 56 13.3 80 80 NNW 15 24 29.65 1004 5 8 0.02 0.51
10:51 am 10:51 Partly Cloudy 66 18.9 56 13.3 70 70 N 13 20 29.62 1003 10 16 0.02 0.51
11:51 am 11:51 Cloudy 70 21.1 52 11.1 53 53 NNW 14 22 29.59 1002 10 16 0.00 0.00
12:51 pm 12:51 Mostly Cloudy with Light Rain 68 20 53 11.7 59 59 NW 20 31 29.57 1002 10 16 0.00 0.03
1:51 pm 13:51 Partly Cloudy 67 19.4 50 10 55 55 NW 28 44 29.58 1002 10 16 0.00 0.03
2:51 pm 14:51 Mostly Sunny 66 18.9 48 8.9 52 52 NW 29 46 29.58 1002 10 16 0.00 0.00
3:51 pm 15:51 Sunny 62 16.7 46 7.8 56 56 NW 28 44 29.62 1003 10 16 0.00 0.00
4:51 pm 16:51 Mostly Sunny 59 15 46 7.8 62 62 NNW 20 31 29.65 1004 10 16 0.00 0.00
5:51 pm 17:51 Cloudy with Rain 54 12.2 51 10.6 90 90 WNW 22 35 29.67 1005 4 6 0.03 0.76
6:51 pm 18:51 Cloudy 55 12.8 52 11.1 90 90 NNW 12 19 29.68 1005 10 16 0.12 3.05
7:51 pm 19:51 Cloudy 55 12.8 52 11.1 90 90 N 6 9 29.67 1005 10 16 0.00 0.00
8:51 pm 20:51 Partly Cloudy 56 13.3 51 10.6 84 84 Calm 29.70 1006 10 16 0.00 0.00
9:51 pm 21:51 Clear 53 11.7 51 10.6 93 93 SSE 5 7 29.72 1007 10 16 0.00 0.00
10:51 pm 22:51 Cloudy 53 11.7 52 11.1 96 96 NNE 3 6 29.73 1007 10 16 0.00 0.00
11:51 pm 23:51 Mostly Cloudy 55 12.8 50 10 83 83 ESE 5 7 29.71 1006 10 16 0.00 0.00

Powered by AerisWeather